RANGE-B
1 43772U 18099Q 23054.41129729 .00008932 00000-0 72948-3 0 9994
2 43772 97.6036 121.4196 0013744 130.9921 229.2494 14.99554666230602
RANGE-A
1 43773U 18099R 23054.24643330 .00005007 00000-0 43492-3 0 9997
2 43773 97.5792 117.2858 0014169 137.7380 222.4937 14.97375730230502
MOVE-II
1 43780U 18099Y 23054.15427637 .00009932 00000-0 78292-3 0 9992
2 43780 97.5901 120.7412 0012831 164.7832 195.3781 15.00891454230611
SNUSat 2
1 43782U 18099AA 23054.11889938 .00005950 00000-0 50373-3 0 9992
2 43782 97.5876 119.2726 0013366 135.8979 224.3313 14.98308535230545
SnugLite
1 43784U 18099AC 23054.91001927 .00006606 00000-0 55232-3 0 9994
2 43784 97.5828 119.6686 0015231 142.5675 217.6612 14.98729018230690
ITASat 1
1 43786U 18099AE 23054.40968517 .00005216 00000-0 44323-3 0 9992
2 43786 97.5924 120.0681 0015271 140.3172 219.9171 14.98194866230605
EAGLET 1
1 43790U 18099AJ 23054.22805445 .00003752 00000-0 32169-3 0 9995
2 43790 97.5897 120.4224 0013130 146.6050 213.6003 14.98048221230318
ESEO
1 43792U 18099AL 23054.48983392 .00001989 00000-0 17754-3 0 9996
2 43792 97.5850 119.4500 0013527 143.0587 217.1569 14.96991278230379
CSIM
1 43793U 18099AM 23054.41936694 .00010508 00000-0 81502-3 0 9992
2 43793 97.5875 122.1716 0018366 146.9653 213.2723 15.01427424230495
Astrocast 0.1
1 43798U 18099AS 23054.12377344 .00009405 00000-0 75398-3 0 9996
2 43798 97.5901 121.3354 0014670 120.4879 239.7795 15.00241559230652
JO-97
1 43803U 18099AX 23054.11727945 .00006882 00000-0 56949-3 0 9995
2 43803 97.5856 119.6641 0015660 142.3663 217.8660 14.99108187230598
Suomi 100
1 43804U 18099AY 23054.15873500 .00005577 00000-0 46533-3 0 9997
2 43804 97.5859 119.5628 0014215 143.6377 216.5814 14.98890755230604
Al Farabi 2
1 43805U 18099AZ 23054.61345592 .00009428 00000-0 75838-3 0 9993
2 43805 97.5960 120.8812 0013080 129.3052 230.9313 15.00130569230718
CHOMPTT
1 43855U 18104G 23054.52960041 .00023046 00000-0 69881-3 0 9990
2 43855 85.0293 243.0991 0014624 29.7117 330.4958 15.33890810233116
ISAT
1 43879U 18111D 23054.27407566 .00008582 00000-0 68683-3 0 9991
2 43879 97.6487 320.4133 0012232 170.7067 189.4386 15.00365748227243
UWE-4
1 43880U 18111E 23054.25938219 .00007558 00000-0 60510-3 0 9998
2 43880 97.6505 321.2597 0014157 192.8783 167.2082 15.00370048227276
Sparrow
1 43881U 18111F 23054.30720515 .00007719 00000-0 61232-3 0 9994
2 43881 97.6599 321.6849 0012036 206.4462 153.6149 15.00740112227292
Lume 1
1 43908U 18111AJ 23054.23946372 .00031429 00000-0 82959-3 0 9991
2 43908 97.1583 299.6843 0012754 252.5983 107.3868 15.38323343231827
FO-99
1 43937U 19003F 23054.50692280 .00040764 00000-0 99208-3 0 9997
2 43937 97.1037 84.0012 0014845 337.9657 22.0950 15.40720969228476
AstroCast 0.2
1 44083U 19018F 23054.65439337 .00041964 00000-0 11776-2 0 9990
2 44083 97.2854 114.4782 0006418 303.8203 56.2430 15.36423813216905
AISTechSat 3
1 44103U 19018AB 23054.82985170 .00023641 00000-0 71097-3 0 9998
2 44103 97.2726 114.5004 0009593 326.2080 145.0401 15.34341313217080
AISat 1
1 44104U 19018AC 23054.74513003 .00018866 00000-0 43798-3 0 9992
2 44104 97.3768 144.4591 0044715 310.7189 49.0178 15.41346359218217
Prox-1
1 44339U 19036A 23054.11634241 .00007871 00000-0 16515-2 0 9991
2 44339 24.0021 48.7739 0010308 92.2085 267.9587 14.57478044194923
Move-IIb
1 44398U 19038N 23054.46207794 .00043787 00000-0 15606-2 0 9991
2 44398 97.6571 32.9147 0015962 348.5098 11.5774 15.28660871201227
SONATE
1 44400U 19038Q 23054.47144784 .00013600 00000-0 66287-3 0 9998
2 44400 97.6738 30.0920 0021458 353.6722 6.4237 15.18253465200965
BeeSat 9
1 44412U 19038AC 23054.45194256 .00025961 00000-0 10852-2 0 9997
2 44412 97.6662 31.9407 0016791 355.8905 4.2190 15.23460517200806
JAISAT-1
1 44419U 19038F 23054.69068103 .00026123 00000-0 10790-2 0 9993
2 44419 97.6669 33.2066 0015657 352.3470 7.7525 15.23880231201210
Taurus 1
1 44530U 19059C 23054.79861338 .00007050 00000-0 18782-2 0 9999
2 44530 98.5477 161.0195 0013603 83.3137 276.9488 14.48724961182213
Duchifat 3
1 44854U 19089C 23054.40275000 .00009524 00000-0 68312-3 0 9997
2 44854 36.9638 50.2121 0006344 111.7877 38.5936 15.03864618175685
OPS-SAT
1 44878U 19092F 23054.49162543 .00029071 00000-0 10868-2 0 9994
2 44878 97.4774 242.2994 0010126 182.7615 177.3570 15.27252376176399
TO-108
1 44881U 19093C 23054.42385635 .00001664 00000-0 21502-3 0 9997
2 44881 97.8708 134.8014 0016115 88.7521 271.5527 14.82177529171949
FloripaSat 1
1 44885U 19093G 23054.83283762 .00005251 00000-0 62652-3 0 9991
2 44885 97.8756 137.3183 0014804 91.8003 268.4815 14.84603554172124
RS-44
1 44909U 19096E 23054.46868561 .00000007 00000-0 -25647-4 0 9995
2 44909 82.5176 63.5038 0218623 92.8438 269.7704 12.79718488147617
BY70-2
1 45857U 20042B 23054.57062967 .00017493 00000-0 20460-2 0 9991
2 45857 97.9341 134.4781 0008694 20.7781 339.3816 14.85113335142648
UPMSat 2
1 46276U 20061E 23054.44116231 .00009319 00000-0 42256-3 0 9994
2 46276 97.3605 124.5005 0001998 55.8627 304.2798 15.21042756136987
AmicalSat
1 46287U 20061R 23054.40597377 .00014795 00000-0 76008-3 0 9992
2 46287 97.4145 123.2444 0003274 121.1704 238.9850 15.16579420136444
SALSAT
1 46495U 20068K 23054.38813058 .00006282 00000-0 43081-3 0 9991
2 46495 97.7593 1.3892 0017104 141.1367 219.1093 15.06266139131930
BY70-3
1 46839U 20079N 23054.55289435 .00162740 00000-0 14307-2 0 9990
2 46839 97.1635 130.9014 0002910 178.1027 288.8704 15.68278571129143
CAPE 3
1 47309U 21002A 23054.93931883 .00029231 00000-0 90128-3 0 9996
2 47309 60.6797 134.2795 0035668 117.9484 242.5225 15.32859038116872
AO-109
1 47311U 21002C 23054.51062303 .00024742 00000-0 78245-3 0 9993
2 47311 60.6824 133.4619 0033592 114.7184 245.7410 15.32205557116825
MiTEE 1
1 47314U 21002F 23054.57163996 .00082666 00000-0 15237-2 0 9992
2 47314 60.6748 114.4616 0028439 99.9850 260.4461 15.48159346117177
ExoCube 2
1 47319U 21002L 23054.52486710 .00024569 00000-0 79112-3 0 9995
2 47319 60.6806 135.1365 0034174 116.9128 243.5462 15.31614419116765
UVSQ-SAT
1 47438U 21006AB 23054.65857222 .00015749 00000-0 72710-3 0 9992
2 47438 97.4017 113.6197 0011828 119.3716 240.8702 15.20233342115377
YUSAT 1
1 47439U 21006AC 23054.89626759 .00020171 00000-0 89310-3 0 9997
2 47439 97.4025 114.2644 0011420 117.9247 242.3146 15.21623062115431
SOMP 2b
1 47445U 21006AJ 23054.13651683 .00013900 00000-0 65348-3 0 9992
2 47445 97.3989 112.5196 0011700 124.7219 235.5120 15.19637484115273
IDEASSat
1 47458U 21006AX 23054.14885991 .00014164 00000-0 67187-3 0 9994
2 47458 97.4081 113.2510 0010999 123.4287 236.8002 15.19330839115265
CubeSX-Sirius-HSE
1 47951U 21022V 23054.54963171 .00011475 00000-0 69353-3 0 9990
2 47951 97.5103 313.8837 0020367 11.3472 108.7808 15.10656654105852
CubeSX-HSE
1 47952U 21022W 23054.58386868 .00011641 00000-0 70238-3 0 9996
2 47952 97.5106 313.9551 0020144 11.5526 54.5281 15.10717825105867
KSU-Cubesat
1 47954U 21022Y 23054.67748010 .00012827 00000-0 76202-3 0 9993
2 47954 97.5096 314.2923 0019855 10.6071 349.5574 15.11262855105610
GRBAlpha
1 47959U 21022AD 23054.71188741 .00011613 00000-0 69954-3 0 9990
2 47959 97.5114 314.1463 0020185 11.5013 74.1767 15.10778215104703
